Regional Weather Roundup
Issued by NWS

Home | Current Version | Previous Version | Graphics & Text | Print | Product List | Glossary On
Versions: 1 2 3 4 5 6 7 8 9 10 11 12 13 14 15 16 17 18 19 20 21 22 23 24 25 26 27 28 29 30 31 32 33 34 35 36 37 38 39 40 41 42 43 44 45 46 47 48 49 50
000
ASUS43 KLSX 260610
RWRMO

WEATHER SUMMARY FOR MISSOURI
NATIONAL WEATHER SERVICE SPRINGFIELD MO
100 AM CDT MON JUN 26 2017

NOTE: "FAIR" INDICATES FEW OR NO CLOUDS BELOW 12,000 FEET WITH NO
       SIGNIFICANT WEATHER AND/OR OBSTRUCTIONS TO VISIBILITY.
       CURRENT SKY AND/OR WEATHER CONDITIONS ARE NOT AVAILABLE FOR
       CHILLICOTHE AND FARMINGTON.

MOZ001>031-035>038-043-044-053-054-260700-
...NORTHERN AND WESTERN MISSOURI...

CITY           SKY/WX    TMP DP  RH WIND       PRES   REMARKS
KANSAS CTY INT CLEAR     53  52  96 W5        30.24S
6HR MIN TEMP:  49; 6HR MAX TEMP:  67;

KANSAS C DTWN  CLEAR     59  52  77 SW3       30.24S
6HR MIN TEMP:  58; 6HR MAX TEMP:  67;

LEE`S SUMMIT   CLEAR     58  50  75 W3        30.25S
6HR MIN TEMP:  58; 6HR MAX TEMP:  65;

ST JOSEPH      CLEAR     57  54  89 S5        30.23F
6HR MIN TEMP:  55; 6HR MAX TEMP:  73;

CHILLICOTHE      N/A     54  50  86 CALM      30.24S
6HR MIN TEMP:  54; 6HR MAX TEMP:  75;

KIRKSVILLE     CLEAR     50  48  93 CALM      30.22S
6HR MIN TEMP:  50; 6HR MAX TEMP:  72;


$$
MOZ066>068-077>081-088>096-101>105-260700-
...SOUTHWEST MISSOURI...

CITY           SKY/WX    TMP DP  RH WIND       PRES   REMARKS
SPRINGFIELD    CLOUDY    68  58  70 N6        30.23S
6HR MIN TEMP:  68; 6HR MAX TEMP:  77;

JOPLIN         CLOUDY    67  60  78 CALM      30.24S
6HR MIN TEMP:  67; 6HR MAX TEMP:  79;

BRANSON          N/A     63  57  82 CALM      30.25R

$$
MOZ032>034-039>042-045>050-055>058-069>072-260700-
...CENTRAL MISSOURI...

CITY           SKY/WX    TMP DP  RH WIND       PRES   REMARKS
COLUMBIA       CLEAR     60  51  72 NW6       30.23R
6HR MIN TEMP:  59; 6HR MAX TEMP:  73;

JEFFERSON CITY CLEAR     59  52  77 CALM      30.22S
6HR MIN TEMP:  59; 6HR MAX TEMP:  77;

ROLLA          CLOUDY    63  49  60 NW3       30.22S
6HR MIN TEMP:  63; 6HR MAX TEMP:  74; 6HR PCP: TRACE;

SEDALIA        CLEAR     58  53  84 W3        30.25R
6HR MIN TEMP:  57; 6HR MAX TEMP:  72; 6HR PCP: TRACE;

WHITEMAN AFB   PTCLDY    56  56 100 CALM      30.23R
WARRENSBURG    PTCLDY    55  50  82 NW3       30.24S
OSAGE BEACH    CLOUDY    64  51  62 CALM      30.25R

$$
MOZ051-052-059>065-260700-
...EAST CENTRAL MISSOURI...

CITY           SKY/WX    TMP DP  RH WIND       PRES   REMARKS
ST LOUIS INTL  CLEAR     60  49  66 W5        30.21R
6HR MIN TEMP:  60; 6HR MAX TEMP:  79;

SPIRIT OF STL  CLEAR     58  52  80 CALM      30.20R
6HR MIN TEMP:  56; 6HR MAX TEMP:  78;

ST CHARLES     CLEAR     59  50  72 CALM      30.19S
6HR MIN TEMP:  58; 6HR MAX TEMP:  77;


$$
MOZ072>076-082>087-097>100-106>115-260700-
...SOUTH CENTRAL AND SOUTHEAST MISSOURI...

CITY           SKY/WX    TMP DP  RH WIND       PRES   REMARKS
CAPE GIRARDEAU CLOUDY    70  56  61 CALM      30.18R
6HR MIN TEMP:  64; 6HR MAX TEMP:  82;

FARMINGTON     CLOUDY    67  53  61 NW3       30.22S
6HR MIN TEMP:  67; 6HR MAX TEMP:  79;

POPLAR BLUFF   CLEAR     66  63  90 CALM      30.19R
6HR MIN TEMP:  65; 6HR MAX TEMP:  82;

WEST PLAINS    CLOUDY    67  54  63 N7        30.23F
6HR MIN TEMP:  65; 6HR MAX TEMP:  81;


$$




USA.gov is the U.S. government's official web portal to all federal, state and local government web resources and services.